星链-34740 (STARLINK-34740)

导读 | 豆包AI

STARLINK-34740是美国SpaceX公司星链(Starlink)星座中的一颗卫星,于2025年7月26日由猎鹰9号火箭在佛罗里达卡纳维拉尔角发射入低地球轨道,属于星链10-26批次28颗卫星之一。 作为量产型低轨通信卫星,它采用平板设计,搭载Ku/Ka波段通信载荷与氪工质霍尔推进器,具备自主避撞能力,旨在为全球提供高速低时延宽带互联网服务,设计寿命约5-7年,退役后会再入大气层焚毁。

Basic Information
目录编号:
64941
目录名称:
STARLINK-34740
国际标识:
2025-158K
轨道中心:
EARTH
卫星名称:
星链-34740
卫星全名:
星链-34740 (STARLINK-34740)
卫星状态:
在轨 (已飞行277 天)
发射日期:
2025-07-26 UTC
国别 :
美国 (US)
星等 :
--
Orbit Information
数据来源 国际轨道数据 AOE轨道数据
星历时间 2026-04-29T11:58:25+0800
8小时前
查看轨道信息
2026-04-27T00:00:00+0800
2天前
查看轨道信息
半长轴 6927.682km 6927.644km
偏心率 0.0002008 0.0001944
轨道倾角 97.560° 97.569°
近地点辐角 79.649° 62.725°
升交点赤经 343.844° 341.391°
平近点角 280.497° 81.195°
近地点 548.153km 548.16km
远地点 550.937km 550.854km
周期 95.640分钟 95.640分钟
每日圈数 15.056391 15.056514
Detailed Information
固有亮度:
5
最大亮度:
2.5
卫星平台:
Starlink V1.0
覆盖范围:
全球
运营商:
太空探索技术公司
运营商所在国:
美国
制造商(研发单位):
太空探索技术公司
制造商所在国:
美国
使用方式:
暂无
Satellite Introduction
Starlink 计划是 SpaceX 推出的全球卫星互联网项目,通过发射低轨道卫星,为全球尤其是偏远地区提供高速、低延迟的互联网服务。自 2019 年起,Starlink 已部署数千颗卫星,旨在缩小全球数字鸿沟,推动互联网普及。该项目还为军事、航空等行业提供通信支持,带来广泛经济效益。
2D Orbit Map
3D Orbit Map
Orbit Altitude Analysis Chart
Orbit Inclination Analysis Chart
Orbit Comprehensive Analysis Chart
View Comprehensive Chart